Location: Ferchesar
(52.6477°N, 12.4298°E)
Time: 11:19:21
(UTC+01:00)

Altair - Pass Details

Date: 07 December 2021
Orbit: 1501 x 1683 km, 47.2° (Epoch: 20 January)

Event Time Altitude Azimuth Distance (km) Brightness Sun altitude
Rises 17:08:14 0° 255° (WSW) 4,761 12.1 -10.2°
Reaches altitude 10° 17:11:22 10° 253° (WSW) 3,753 11.1 -10.6°
Maximum altitude 17:20:38 63° 175° (S) 1,672 7.8 -11.9°
Enters shadow 17:29:25 11° 98° (E) 3,581 8.9 -13.1°
